Starlink 36172

operational
NORAD ID: 67020 Int'l Des: 2025-293 Owner: SPXS Country: US Constellation: starlink
LEOCIRCULAR

About Starlink 36172

Description loading...

Live Position

Loading 3D Globe...

Upcoming Passes

Altitude History

Altitude vs Time

uPlot chart will show altitude changes over time

Two-Line Element Set

1 67020C 25293T 25346.10256944 -.00106020 00000+0 -14390-3 0 3463
2 67020 69.9970 325.9301 0004769 267.3684 192.3647 16.06196138 16
Epoch: Dec 12, 2025 • Age: 50 hours

Current Status

Altitude 273.4 km
Velocity 7.74 km/s
Sub-Earth Point -45.59°S, 169.76°W
Launch Date Dec 10, 2025
Age 3 days
Type internet

Technical Details

Classification Payload
Mass 575.00 kg
Dry Mass 530.00 kg
Total Mass 575.00 kg
Length 0.30 m
Diameter 4.10 m
Span 29.00 m
Shape Box + pan
Manufacturer SPXS
Bus Type Starlink V2MO
Phase Status In Orbit
Owner/State SPXS/US

Large Constellations

Loading constellations...